Flag for Germany Weather past 2 weeks in Kiel, Schleswig-Holstein, Germany

Now
47 °F

Fog.


Feels Like: 47 °F
Forecast: 43 / 52 °F
Wind: 2 mph from Southeast

Location: Kiel-Holtenau

Current Time: Apr 25, 2015 at 5:02:25 AM

Latest Report: Apr 25, 2015 at 3:00 AM


Visibility: 3 mi

Pressure: 29.73 "Hg

Humidity: 93%

Dew point: 45 °F

Location of KielLocation

Historic Weather in Kiel — Graph

°F

Kiel temperature yesterday

Maximum temperature yesterday: 62 °F (at 4:00 PM)
Minimum temperature yesterday: 43 °F (at 8:00 AM)
Average temperature yesterday: 51 °F

Past Weeks' High & Low Weather Summary

 TemperatureHumidityPressure
High67 °F (Apr 11, 3:00 PM)100% (Apr 24, 1:00 AM)30.37 "Hg (Apr 24, 1:00 AM)
Low36 °F (Apr 10, 4:00 AM)41% (Apr 20, 5:00 PM)29.73 "Hg (Apr 25, 3:00 AM)
Average48 °F75%30.13 "Hg
* Reported Apr 10 3:00 AM — Apr 25 3:00 AM, Kiel, Weather by CustomWeather, © 2015

Note: Actual official high and low records may vary slightly from our data, if they occured in-between our weather recording intervals... More about our weather records

Advertising

Kiel weather history for previous 24 hours

 ConditionsComfort  
Time TempWeatherWind HumidityBarometerVisibility
3:00 AM
Sat, Apr 25
47 °FFog.2 mph93%29.73 "Hg3 mi
1:00 AM47 °FFog.1 mph88%29.76 "Hg3 mi
12:00 AM49 °FFog.1 mph83%29.77 "Hg4 mi
11:00 PM
Fri, Apr 24
49 °FClear.2 mph81%29.78 "Hg5 mi
10:00 PM53 °FClear.1 mph71%29.79 "Hg5 mi
9:00 PM57 °FClear.1 mph58%29.79 "Hg7 mi
8:00 PM60 °FOvercast.1 mph49%29.79 "Hg11 mi
7:00 PM60 °FSunny.3 mph46%29.81 "Hg11 mi
6:00 PM62 °FSunny.5 mph47%29.81 "Hg8 mi
5:00 PM61 °FSunny.5 mph54%29.82 "Hg9 mi
4:00 PM62 °FPassing clouds.5 mph55%29.84 "Hg6 mi
3:00 PM61 °FPassing clouds.5 mph53%29.85 "Hg7 mi
2:00 PM59 °FSunny.5 mph54%29.86 "Hg6 mi
1:00 PM55 °FScattered clouds.3 mph66%29.89 "Hg12 mi
12:00 PM50 °FOvercast.2 mph78%29.91 "Hg12 mi
11:00 AM47 °FLow clouds.3 mph87%29.92 "Hg18 mi
10:00 AM45 °FDrizzle. Low clouds.3 mph97%29.92 "Hg9 mi
9:00 AM43 °FLow clouds.2 mph100%29.92 "Hg3 mi
8:00 AM43 °FLow clouds.2 mph100%29.94 "Hg3 mi
7:00 AM43 °FLow clouds.2 mph100%29.94 "Hg1 mi
6:00 AM43 °FLow clouds.2 mph100%29.94 "Hg1 mi
5:00 AM43 °FLow clouds.3 mph100%29.94 "Hg1 mi
Weather by CustomWeather, © 2015

See weather overviewHow to use our weather pages